Home   Weather   Jefferson City   Past weeks
Flag for USA

Past Weather in Jefferson City, Missouri, USA — Yesterday and Last 2 Weeks

Now
73 °F

Sunny.


Feels Like: 74 °F
Forecast: 84 / 69 °F
Wind: 12 mph from Southwest

Location: Columbia Regional Airport

Current Time: May 25, 2019 at 10:22:06 am

Latest Report: May 25, 2019 at 9:54 am


Visibility: 10 mi

Pressure: 30.01 "Hg

Humidity: 76%

Dew Point: 65 °F

Location of Jefferson CityLocation

Past Weather in Jefferson City — Graph

°F

Jefferson City Temperature Yesterday

Maximum temperature yesterday: 87 °F (at 3:54 pm)
Minimum temperature yesterday: 68 °F (at 11:54 pm)
Average temperature yesterday: 77 °F

High & Low Weather Summary for the Past Weeks

 TemperatureHumidityPressure
High88 °F (May 16, 2:54 pm)94% (May 18, 8:54 pm)30.19 "Hg (May 18, 8:54 pm)
Low43 °F (May 13, 5:04 am)35% (May 16, 3:54 pm)29.56 "Hg (May 21, 3:54 pm)
Average64 °F73%29.88 "Hg
* Reported May 10 8:54 am — May 25 8:54 am, Jefferson City. Weather by CustomWeather, © 2019

Note: Actual official high and low records may vary slightly from our data, if they occured in-between our weather recording intervals... More about our weather records

Advertising

Jefferson City Weather History for the Previous 24 Hours

Scroll right to see more
 ConditionsComfort  
Time TempWeatherWind HumidityBarometerVisibility
8:54 am
Sat, May 25
70 °FPartly sunny.12 mph81%30.01 "Hg10 mi
7:54 am69 °FScattered clouds.6 mph84%29.96 "Hg10 mi
6:54 am67 °FLight rain. Broken clouds.8 mph87%29.91 "Hg10 mi
5:54 am66 °FPartly sunny.12 mph90%29.97 "Hg10 mi
4:54 am67 °FOvercast.13 mph87%29.98 "Hg10 mi
3:54 am66 °FOvercast.8 mph90%29.94 "Hg10 mi
2:54 am65 °FPassing clouds.6 mph91%29.95 "Hg10 mi
1:54 am66 °FMostly cloudy.6 mph90%29.98 "Hg10 mi
12:54 am67 °FMostly cloudy.3 mph87%29.99 "Hg10 mi
11:54 pm
Fri, May 24
68 °FPartly cloudy.5 mph82%30.01 "Hg10 mi
11:12 pm71 °FLight rain. Overcast.18 mph73%30.06 "Hg10 mi
10:54 pm76 °FPassing clouds.26 mph69%30.01 "Hg10 mi
9:54 pm76 °FClear.7 mph72%29.95 "Hg10 mi
8:54 pm77 °FClear.6 mph71%29.91 "Hg10 mi
7:54 pm78 °FSunny.6 mph71%29.89 "Hg10 mi
6:54 pm83 °FPassing clouds.8 mph61%29.89 "Hg10 mi
5:54 pm85 °FPassing clouds.15 mph57%29.90 "Hg10 mi
4:54 pm87 °FPassing clouds.13 mph55%29.92 "Hg10 mi
3:54 pm87 °FScattered clouds.15 mph57%29.92 "Hg10 mi
2:54 pm86 °FPassing clouds.21 mph57%29.94 "Hg10 mi
1:54 pm86 °FPassing clouds.20 mph61%29.95 "Hg10 mi
12:54 pm83 °FPartly sunny.16 mph65%30.00 "Hg10 mi
11:54 am82 °FPartly sunny.14 mph67%30.01 "Hg10 mi
10:54 am82 °FPassing clouds.16 mph67%30.01 "Hg10 mi
Weather by CustomWeather, © 2019

See weather overview